Location: Home
(42.5358°N, 72.7383°W)
Time: 10:22:28
(UTC-05:00)

S-56A Canister/Altair - Pass Details

Date: 07 December 2021
Orbit: 634 x 2499 km, 38.9° (Epoch: 22 January)

Event Time Altitude Azimuth Distance (km) Brightness Sun altitude
Rises 00:25:59 0° 257° (WSW) 5,277 - -68.1°
Reaches altitude 10° 00:29:56 10° 256° (WSW) 3,993 - -67.8°
Maximum altitude 00:39:42 67° 177° (S) 1,318 - -66.8°
Drops below altitude 10° 00:46:02 10° 95° (E) 2,656 - -66.1°
Sets 00:48:12 0° 93° (E) 3,430 - -65.8°
